20051119,000013,1382407,33.317713,-124.275593,7.0,17.422,33.030,43.305,470.52,0.0,0.305,17.348,17.303, NaN,23.816,   NaN,16.81,1018.13,89.94,16.98,23.0,25.4,10.9,11.9,9.6,11.2,6.8,7.9,NaN, NaN,14.0,331.4,328.3,1132358413,1132358412,1,9.3,000013,000012,331.4,33.317567,-124.275550,9.93,NaN,NaN,17.734, NaN,NaN,NaN, NaN, NaN,NaN
20051119,000043,1382437,33.318835,-124.276382,6.7,17.425,33.026,43.303,549.76,0.0,0.315,17.345,17.301, NaN,23.811,   NaN,16.83,1018.30,90.03,16.98,24.2,25.8,10.8,11.6,11.8,12.7,6.8,7.6,NaN, NaN,14.0,330.7,329.7,1132358443,1132358442,1,9.2,000043,000042,331.0,33.318693,-124.276330,10.00,NaN,NaN,17.737, NaN,NaN,NaN, NaN, NaN,NaN
20051119,000113,1382467,33.319960,-124.277173,7.0,17.426,33.026,43.304,643.17,0.0,0.327,17.345,17.301, NaN,23.812,   NaN,16.86,1018.22,90.16,16.97,23.4,25.3,10.6,11.4,11.2,12.4,6.5,7.4,NaN, NaN,14.0,330.4,328.5,1132358472,1132358472,1,9.7,000073,000072,330.4,33.319820,-124.277128,10.07,NaN,NaN,17.738, NaN,NaN,NaN, NaN, NaN,NaN
20051119,000143,1382498,33.321075,-124.277965,6.9,17.428,33.023,43.302,627.50,0.0,0.325,17.341,17.298, NaN,23.808,   NaN,16.82,1018.23,90.02,16.98,21.9,24.1,10.8,11.8,8.4,9.5,6.6,7.7,NaN, NaN,14.0,330.5,328.5,1132358503,1132358503,1,9.3,000103,000103,330.5,33.320967,-124.277943,10.12,NaN,NaN,17.740, NaN,NaN,NaN, NaN, NaN,NaN
20051119,000213,1382527,33.322195,-124.278742,7.0,17.422,33.028,43.303,741.95,0.0,0.340,17.340,17.295, NaN,23.814,   NaN,16.81,1018.17,89.80,16.97,22.0,23.8,10.9,12.0,8.4,8.7,6.7,7.8,NaN, NaN,14.0,330.7,329.0,1132358533,1132358532,1,9.7,000133,000132,330.7,33.322045,-124.278700,9.97,NaN,NaN,17.734, NaN,NaN,NaN, NaN, NaN,NaN
20051119,000243,1382557,33.323300,-124.279513,6.9,17.416,33.034,43.304,579.32,0.0,0.313,17.335,17.291, NaN,23.820,   NaN,16.86,1018.17,89.77,16.97,23.0,24.0,10.7,11.8,10.1,9.4,6.6,7.7,NaN, NaN,13.0,330.2,330.2,1132358563,1132358563,1,9.4,000163,000163,330.3,33.323190,-124.279500,9.91,NaN,NaN,17.728, NaN,NaN,NaN, NaN, NaN,NaN
20051119,000313,1382587,33.324405,-124.280298,6.8,17.410,33.038,43.303,727.43,0.0,0.332,17.331,17.285, NaN,23.824,   NaN,16.90,1018.32,89.87,17.04,22.3,23.3,10.7,11.7,9.0,8.3,6.6,7.6,NaN, NaN,13.0,330.6,331.9,1132358593,1132358593,1,9.3,000193,000193,330.5,33.324295,-124.280283,10.02,NaN,NaN,17.722, NaN,NaN,NaN, NaN, NaN,NaN
20051119,000343,1382617,33.325518,-124.281097,6.9,17.407,33.039,43.302,753.12,0.0,0.335,17.329,17.284, NaN,23.826,   NaN,16.89,1018.31,89.91,17.02,21.1,23.1,10.9,12.0,6.5,7.6,6.7,7.8,NaN, NaN,13.0,330.8,328.4,1132358622,1132358622,1,9.0,000223,000222,330.8,33.325370,-124.281050,10.04,NaN,NaN,17.719, NaN,NaN,NaN, NaN, NaN,NaN
20051119,000413,1382647,33.326648,-124.281888,6.8,17.402,33.041,43.299,674.00,0.0,0.325,17.327,17.283, NaN,23.828,   NaN,16.86,1018.30,89.94,17.07,21.8,24.0,11.0,12.1,7.6,8.7,6.8,8.0,NaN, NaN,13.0,331.0,328.9,1132358652,1132358652,1,9.2,000253,000252,331.0,33.326498,-124.281853,10.18,NaN,NaN,17.714, NaN,NaN,NaN, NaN, NaN,NaN
20051119,000443,1382678,33.327763,-124.282687,7.0,17.404,33.039,43.298,692.66,0.0,0.327,17.327,17.283, NaN,23.826,   NaN,16.85,1018.15,89.89,17.01,22.1,23.8,10.9,12.0,8.5,8.9,6.7,7.8,NaN, NaN,14.0,331.2,328.5,1132358683,1132358683,1,9.3,000283,000283,331.2,33.327648,-124.282668,9.95,NaN,NaN,17.716, NaN,NaN,NaN, NaN, NaN,NaN
20051119,000513,1382707,33.328878,-124.283457,6.7,17.404,33.036,43.295,656.55,0.0,0.323,17.325,17.282, NaN,23.824,   NaN,16.82,1018.34,89.62,16.99,22.6,24.2,10.9,12.0,9.3,9.6,6.8,7.9,NaN, NaN,13.0,330.8,330.0,1132358713,1132358713,1,9.0,000314,000313,330.8,33.328760,-124.283448,10.00,NaN,NaN,17.716, NaN,NaN,NaN, NaN, NaN,NaN
20051119,000543,1382737,33.329998,-124.284252,6.9,17.404,33.033,43.292,524.18,0.0,0.306,17.326,17.282, NaN,23.822,   NaN,16.88,1018.24,89.60,17.04,23.0,24.8,10.9,11.9,9.9,10.5,6.7,7.8,NaN, NaN,12.0,330.8,328.0,1132358743,1132358742,1,9.2,000343,000342,330.7,33.329843,-124.284222,10.01,NaN,NaN,17.716, NaN,NaN,NaN, NaN, NaN,NaN
20051119,000613,1382767,33.331127,-124.285058,6.8,17.404,33.030,43.288,611.39,0.0,0.317,17.326,17.284, NaN,23.820,   NaN,16.84,1018.25,89.29,17.02,22.4,24.7,10.9,11.9,9.0,10.3,6.7,7.8,NaN, NaN,12.0,331.0,327.8,1132358773,1132358773,1,9.5,000373,000373,331.0,33.331008,-124.285058,9.90,NaN,NaN,17.716, NaN,NaN,NaN, NaN, NaN,NaN
20051119,000644,1382798,33.332292,-124.285890,6.8,17.404,33.029,43.286,604.04,0.0,0.316,17.325,17.283, NaN,23.819,   NaN,16.88,1018.33,89.14,17.00,24.4,25.5,10.9,12.1,12.2,11.4,6.8,8.0,NaN, NaN,12.0,331.0,327.8,1132358804,1132358803,1,9.4,000404,000403,331.0,33.332138,-124.285855,10.14,NaN,NaN,17.716, NaN,NaN,NaN, NaN, NaN,NaN
20051119,000713,1382828,33.333375,-124.286660,6.7,17.405,33.026,43.284,505.00,0.0,0.298,17.325,17.282, NaN,23.816,   NaN,16.89,1018.32,89.03,17.04,25.8,25.7,10.9,11.9,14.4,12.0,6.9,7.8,NaN, NaN,12.0,330.5,327.9,1132358833,1132358833,1,9.2,000433,000433,330.5,33.333262,-124.286657,10.08,NaN,NaN,17.717, NaN,NaN,NaN, NaN, NaN,NaN
20051119,000743,1382858,33.334530,-124.287485,7.0,17.402,33.027,43.282,493.87,0.0,0.302,17.325,17.282, NaN,23.818,   NaN,16.89,1018.12,88.87,17.03,24.9,25.5,11.0,11.9,12.4,11.5,7.0,7.9,NaN, NaN,12.0,331.2,328.6,1132358863,1132358863,1,9.2,000464,000463,331.2,33.334368,-124.287462,9.90,NaN,NaN,17.714, NaN,NaN,NaN, NaN, NaN,NaN
20051119,000813,1382887,33.335608,-124.288255,6.8,17.402,33.026,43.281,428.15,0.0,0.289,17.326,17.283, NaN,23.817,   NaN,16.90,1018.22,88.71,17.03,25.7,25.9,11.2,12.0,13.1,11.9,7.2,7.9,NaN, NaN,12.0,330.8,330.0,1132358893,1132358893,1,9.1,000493,000493,330.8,33.335483,-124.288255,9.98,NaN,NaN,17.714, NaN,NaN,NaN, NaN, NaN,NaN
20051119,000844,1382919,33.336768,-124.289083,7.0,17.402,33.024,43.279,481.35,0.0,0.301,17.330,17.286, NaN,23.816,   NaN,16.96,1018.16,88.90,17.10,27.5,27.1,10.9,11.3,16.7,15.3,7.0,7.4,NaN, NaN,12.0,330.8,331.0,1132358924,1132358923,1,9.2,000524,000523,330.8,33.336608,-124.289060,9.99,NaN,NaN,17.714, NaN,NaN,NaN, NaN, NaN,NaN
20051119,000913,1382947,33.337860,-124.289852,6.8,17.402,33.024,43.279,408.89,0.0,0.287,17.333,17.293, NaN,23.815,   NaN,16.95,1018.17,89.01,17.14,28.7,27.9,10.7,10.7,19.3,18.5,6.8,6.8,NaN, NaN,12.0,330.7,330.2,1132358953,1132358953,1,9.3,000553,000553,330.7,33.337738,-124.289850,10.10,NaN,NaN,17.714, NaN,NaN,NaN, NaN, NaN,NaN
20051119,000943,1382977,33.338993,-124.290670,7.0,17.406,33.020,43.278,426.01,0.0,0.284,17.340,17.297, NaN,23.812,   NaN,16.91,1018.19,89.00,17.08,29.6,28.8,10.7,10.5,20.6,20.5,7.0,6.7,NaN, NaN,13.0,330.8,330.1,1132358983,1132358983,1,9.4,000583,000583,330.8,33.338862,-124.290658,10.01,NaN,NaN,17.718, NaN,NaN,NaN, NaN, NaN,NaN
20051119,001014,1383008,33.340158,-124.291488,7.0,17.409,33.017,43.277,423.30,0.0,0.289,17.345,17.302, NaN,23.808,   NaN,16.92,1018.17,89.00,17.10,28.2,28.7,10.8,11.0,18.3,19.1,6.9,7.2,NaN, NaN,12.0,331.0,329.6,1132359014,1132359013,1,9.1,000614,000613,331.0,33.339993,-124.291447,9.98,NaN,NaN,17.721, NaN,NaN,NaN, NaN, NaN,NaN
20051119,001043,1383037,33.341250,-124.292267,6.8,17.413,33.014,43.278,429.42,0.0,0.274,17.350,17.310, NaN,23.805,   NaN,16.91,1018.23,88.85,17.07,27.0,28.4,10.9,11.4,16.2,17.2,6.9,7.5,NaN, NaN,12.0,330.8,327.6,1132359043,1132359043,1,9.7,000643,000643,330.8,33.341125,-124.292257,10.06,NaN,NaN,17.725, NaN,NaN,NaN, NaN, NaN,NaN
20051119,001114,1383068,33.342420,-124.293085,7.1,17.420,33.009,43.278,441.96,0.0,0.270,17.361,17.321, NaN,23.799,   NaN,16.95,1018.16,88.97,17.13,27.7,29.1,10.9,11.0,17.1,19.5,7.0,7.1,NaN, NaN,11.0,331.0,329.1,1132359074,1132359073,1,9.4,000674,000673,331.0,33.342262,-124.293053,10.08,NaN,NaN,17.732, NaN,NaN,NaN, NaN, NaN,NaN
20051119,001144,1383099,33.343555,-124.293900,6.9,17.430,33.004,43.282,484.82,0.0,0.259,17.374,17.333, NaN,23.794,   NaN,16.95,1018.28,88.99,17.14,27.7,28.4,10.8,10.9,17.4,18.7,6.9,7.1,NaN, NaN,11.0,330.8,325.1,1132359103,1132359103,1,9.8,000704,000703,330.8,33.343397,-124.293860,10.08,NaN,NaN,17.742, NaN,NaN,NaN, NaN, NaN,NaN
20051119,001214,1383128,33.344675,-124.294698,7.0,17.444,32.997,43.285,526.49,0.0,0.264,17.386,17.347, NaN,23.785,   NaN,16.93,1018.04,88.89,17.13,26.4,27.1,10.9,11.7,15.1,14.6,6.9,7.7,NaN, NaN,11.0,330.5,327.2,1132359134,1132359133,1,9.4,000734,000733,330.5,33.344513,-124.294652,9.80,NaN,NaN,17.755, NaN,NaN,NaN, NaN, NaN,NaN
20051119,001243,1383157,33.345785,-124.295490,6.8,17.454,32.994,43.291,476.33,0.0,0.254,17.401,17.362, NaN,23.780,   NaN,16.90,1018.15,88.53,17.05,25.8,27.2,11.2,12.0,13.6,13.9,7.2,8.0,NaN, NaN,11.0,330.7,328.9,1132359163,1132359163,1,9.3,000764,000763,330.7,33.345628,-124.295452,9.88,NaN,NaN,17.765, NaN,NaN,NaN, NaN, NaN,NaN
20051119,001314,1383188,33.346898,-124.296282,7.0,17.470,32.986,43.297,421.31,0.0,0.248,17.414,17.375, NaN,23.769,   NaN,16.96,1018.16,88.47,17.07,27.6,28.4,11.2,11.8,16.3,16.2,7.3,7.9,NaN, NaN,11.0,330.7,331.8,1132359193,1132359193,1,9.0,000794,000793,330.7,33.346747,-124.296243,10.04,NaN,NaN,17.781, NaN,NaN,NaN, NaN, NaN,NaN
20051119,001344,1383218,33.348017,-124.297088,6.9,17.487,32.981,43.307,443.31,0.0,0.245,17.429,17.392, NaN,23.762,   NaN,16.96,1018.19,88.50,17.09,28.2,27.9,11.0,11.7,17.4,15.5,7.2,7.8,NaN, NaN,10.0,330.8,330.6,1132359224,1132359224,1,9.4,000824,000824,330.8,33.347900,-124.297075,10.01,NaN,NaN,17.798, NaN,NaN,0.7, NaN, NaN,NaN
20051119,001413,1383247,33.349130,-124.297885,6.9,17.507,32.977,43.322,442.07,0.0,0.255,17.443,17.403, NaN,23.754,   NaN,16.98,1018.10,88.66,17.16,27.8,26.7,10.9,11.7,17.1,13.6,7.1,7.8,NaN, NaN,10.0,330.5,328.7,1132359253,1132359253,1,9.4,000854,000853,330.5,33.348982,-124.297850,9.84,NaN,NaN,17.818, NaN,NaN,0.7, NaN, NaN,NaN
20051119,001444,1383278,33.350253,-124.298697,7.0,17.522,32.972,43.329,502.26,0.0,0.256,17.456,17.418, NaN,23.747,   NaN,16.95,1018.22,88.45,17.12,28.1,27.2,11.0,11.7,17.4,14.5,7.1,7.8,NaN, NaN,11.0,330.8,327.8,1132359284,1132359284,1,9.7,000884,000884,330.8,33.350148,-124.298687,10.08,NaN,NaN,17.832, NaN,NaN,0.7, NaN, NaN,NaN
20051119,001514,1383308,33.351378,-124.299503,6.8,17.529,32.979,43.343,538.68,0.0,0.270,17.478,17.441, NaN,23.750,   NaN,16.95,1018.28,88.29,17.09,28.1,27.7,11.1,11.7,17.2,15.3,7.2,7.8,NaN, NaN,11.0,330.7,328.2,1132359313,1132359313,1,9.4,000914,000913,330.7,33.351232,-124.299470,9.87,NaN,NaN,17.839, NaN,NaN,0.7, NaN, NaN,NaN
20051119,001544,1383338,33.352530,-124.300352,6.9,17.555,32.976,43.365,548.27,0.0,0.266,17.507,17.471, NaN,23.742,   NaN,16.98,1018.25,88.39,17.16,28.1,27.8,10.9,11.3,17.7,16.5,7.1,7.4,NaN, NaN,11.0,331.0,327.6,1132359344,1132359344,1,9.3,000945,000944,331.0,33.352390,-124.300312,9.95,NaN,NaN,17.865, NaN,NaN,0.7, NaN, NaN,NaN
20051119,001614,1383368,33.353613,-124.301135,7.0,17.563,32.977,43.373,773.34,0.0,0.297,17.534,17.500, NaN,23.741,   NaN,17.00,1018.23,88.66,17.19,27.8,28.3,10.5,11.1,18.1,17.8,6.7,7.2,NaN, NaN,12.0,330.3,325.0,1132359374,1132359374,1,9.6,000974,000974,330.5,33.353510,-124.301123,9.86,NaN,NaN,17.873, NaN,NaN,0.7, NaN, NaN,NaN
20051119,001644,1383398,33.354748,-124.301953,7.0,17.596,32.963,43.389,645.87,0.0,0.282,17.561,17.526, NaN,23.722,   NaN,16.98,1018.23,88.82,17.19,26.7,28.4,10.6,11.4,16.6,17.4,6.7,7.5,NaN, NaN,12.0,330.8,328.7,1132359403,1132359403,1,9.3,001004,001003,330.8,33.354598,-124.301907,9.96,NaN,NaN,17.906, NaN,NaN,0.7, NaN, NaN,NaN
20051119,001714,1383429,33.355877,-124.302778,6.9,17.643,32.941,43.406,670.35,0.0,0.290,17.582,17.547, NaN,23.694,   NaN,16.96,1018.28,88.85,17.16,27.1,28.3,10.8,11.4,16.9,17.4,6.8,7.5,NaN, NaN,12.0,331.0,330.3,1132359434,1132359433,1,9.4,001034,001033,331.0,33.355725,-124.302730,10.08,NaN,NaN,17.952, NaN,NaN,NaN, NaN, NaN,NaN
20051119,001744,1383458,33.356995,-124.303592,7.1,17.662,32.945,43.429,868.63,0.0,0.308,17.601,17.563, NaN,23.692,   NaN,16.97,1018.22,88.95,17.15,28.5,29.3,10.5,10.4,19.5,21.8,6.7,6.6,NaN, NaN,11.0,330.7,329.6,1132359464,1132359463,1,9.7,001064,001063,330.7,33.356845,-124.303545,9.90,NaN,NaN,17.971, NaN,NaN,NaN, NaN, NaN,NaN
20051119,001814,1383488,33.358127,-124.304407,7.0,17.681,32.951,43.454,944.99,0.0,0.311,17.613,17.579, NaN,23.693,   NaN,17.00,1018.24,89.06,17.15,29.2,29.5,10.5,10.1,20.7,22.5,6.7,6.4,NaN, NaN,11.0,331.2,327.8,1132359493,1132359493,1,9.5,001094,001093,331.2,33.357967,-124.304362,10.11,NaN,NaN,17.989, NaN,NaN,NaN, NaN, NaN,NaN
20051119,001845,1383520,33.359292,-124.305247,7.0,17.702,32.965,43.490,840.78,0.0,0.293,17.622,17.590, NaN,23.698,   NaN,16.93,1018.31,88.74,17.11,28.8,29.2,10.6,10.6,19.9,20.7,6.8,6.8,NaN, NaN,11.0,330.7,328.8,1132359525,1132359524,1,9.5,001125,001124,330.9,33.359133,-124.305205,9.99,NaN,NaN,18.010, NaN,NaN,NaN, NaN, NaN,NaN
20051119,001915,1383549,33.360463,-124.306090,7.1,17.713,32.980,43.518,983.47,0.0,0.316,17.631,17.596, NaN,23.707,   NaN,17.01,1018.22,88.77,17.18,28.1,30.1,10.3,10.2,19.9,23.5,6.4,6.5,NaN, NaN,12.0,330.3,330.3,1132359555,1132359555,1,9.5,001156,001155,330.2,33.360303,-124.306043,10.01,NaN,NaN,18.021, NaN,NaN,NaN, NaN, NaN,NaN
20051119,001945,1383579,33.361540,-124.306867,6.9,17.718,32.999,43.546,971.98,0.0,0.309,17.636,17.600, NaN,23.720,   NaN,17.06,1018.41,88.85,17.21,26.4,29.3,10.2,10.6,17.5,21.1,6.3,6.8,NaN, NaN,12.0,331.1,328.6,1132359585,1132359584,1,9.2,001185,001184,331.0,33.361382,-124.306830,10.04,NaN,NaN,18.026, NaN,NaN,NaN, NaN, NaN,NaN
20051119,002015,1383609,33.362715,-124.307712,7.0,17.722,33.014,43.569,967.51,0.0,0.302,17.638,17.603, NaN,23.732,   NaN,17.02,1018.24,88.84,17.20,25.9,28.4,10.6,11.3,15.5,17.4,6.6,7.4,NaN, NaN,12.0,331.2,327.7,1132359615,1132359615,1,9.5,001216,001215,331.2,33.362555,-124.307678,10.04,NaN,NaN,18.030, NaN,NaN,NaN, NaN, NaN,NaN
20051119,002045,1383639,33.363805,-124.308493,7.1,17.724,33.029,43.589,877.43,0.0,0.292,17.641,17.604, NaN,23.743,   NaN,16.95,1018.27,88.67,17.12,27.0,28.2,10.8,11.5,16.5,16.7,6.8,7.5,NaN, NaN,12.0,330.7,330.3,1132359645,1132359645,1,9.2,001245,001245,330.3,33.363693,-124.308483,10.21,NaN,NaN,18.032, NaN,NaN,NaN, NaN, NaN,NaN
20051119,002115,1383670,33.364978,-124.309342,7.0,17.726,33.042,43.605,825.46,0.0,0.286,17.641,17.605, NaN,23.752,   NaN,16.93,1018.30,88.46,17.11,27.9,28.8,10.6,10.9,18.7,19.6,6.7,7.1,NaN, NaN,12.0,331.0,328.8,1132359675,1132359675,1,9.2,001276,001275,331.0,33.364832,-124.309310,10.18,NaN,NaN,18.034, NaN,NaN,NaN, NaN, NaN,NaN
20051119,002145,1383699,33.366118,-124.310162,7.1,17.727,33.053,43.620,761.41,0.0,0.284,17.641,17.604, NaN,23.760,   NaN,17.00,1018.23,88.57,17.14,29.5,30.0,10.3,10.1,22.0,23.9,6.5,6.4,NaN, NaN,12.0,331.0,329.2,1132359705,1132359705,1,9.1,001306,001305,331.0,33.365968,-124.310130,10.20,NaN,NaN,18.035, NaN,NaN,NaN, NaN, NaN,NaN
20051119,002215,1383729,33.367197,-124.310945,6.9,17.726,33.064,43.632,807.31,0.0,0.289,17.643,17.607, NaN,23.769,   NaN,17.00,1018.21,88.75,17.15,28.9,29.5,10.3,10.4,20.8,21.8,6.5,6.6,NaN, NaN,12.0,331.0,331.6,1132359735,1132359735,1,8.9,001336,001335,330.8,33.367078,-124.310940,9.80,NaN,NaN,18.034, NaN,NaN,NaN, NaN, NaN,NaN
20051119,002245,1383759,33.368357,-124.311782,6.9,17.724,33.074,43.641,864.97,0.0,0.296,17.643,17.607, NaN,23.777,   NaN,16.93,1018.33,88.60,17.13,27.7,29.4,10.5,10.8,18.3,20.0,6.6,7.0,NaN, NaN,11.0,330.7,329.5,1132359765,1132359765,1,9.1,001366,001365,330.7,33.368200,-124.311747,9.99,NaN,NaN,18.032, NaN,NaN,NaN, NaN, NaN,NaN
20051119,002315,1383789,33.369477,-124.312605,7.0,17.728,33.078,43.650,891.62,0.0,0.299,17.644,17.608, NaN,23.779,   NaN,16.93,1018.29,88.50,17.07,29.2,31.2,10.6,10.4,20.2,24.1,6.8,6.7,NaN, NaN,11.0,330.7,328.2,1132359795,1132359795,1,9.3,001396,001395,330.8,33.369313,-124.312562,9.93,NaN,NaN,18.036, NaN,NaN,NaN, NaN, NaN,NaN
20051119,002345,1383819,33.370573,-124.313383,6.9,17.731,33.080,43.655,825.41,0.0,0.291,17.647,17.610, NaN,23.780,   NaN,16.99,1018.26,88.67,17.12,30.1,31.5,10.6,10.3,21.7,24.9,6.9,6.7,NaN, NaN,11.0,334.5,328.1,1132359825,1132359824,1,9.4,001425,001424,334.5,33.370410,-124.313365,10.16,NaN,NaN,18.039, NaN,NaN,NaN, NaN, NaN,NaN
20051119,002415,1383850,33.371802,-124.314082,6.9,17.731,33.084,43.660,326.43,0.0,0.239,17.647,17.610, NaN,23.784,   NaN,17.01,1018.33,89.02,17.20,28.0,29.2,10.4,10.7,22.1,23.3,6.5,6.9,NaN, NaN,12.0,336.2,334.8,1132359855,1132359855,1,9.7,001456,001455,335.9,33.371637,-124.314070,9.80,NaN,NaN,18.039, NaN,NaN,NaN, NaN, NaN,NaN
20051119,002445,1383879,33.372995,-124.314770,6.7,17.732,33.088,43.666,312.72,0.0,0.237,17.651,17.614, NaN,23.786,   NaN,16.97,1018.36,89.11,17.15,26.3,27.3,10.7,11.7,21.4,20.6,6.7,7.7,NaN, NaN,13.0,336.5,334.0,1132359885,1132359885,1,9.3,001486,001485,336.5,33.372832,-124.314757,10.09,NaN,NaN,18.040, NaN,NaN,NaN, NaN, NaN,NaN
20051119,002515,1383909,33.374192,-124.315458,6.9,17.733,33.093,43.672,306.02,0.0,0.237,17.655,17.617, NaN,23.790,   NaN,16.87,1018.30,88.94,17.08,26.5,27.5,11.1,12.0,20.5,20.1,7.1,8.0,NaN, NaN,12.0,336.2,332.9,1132359915,1132359915,1,9.3,001516,001515,336.2,33.374035,-124.315442,10.07,NaN,NaN,18.041, NaN,NaN,NaN, NaN, NaN,NaN
20051119,002545,1383939,33.375348,-124.316123,6.9,17.736,33.093,43.675,299.66,0.0,0.232,17.656,17.618, NaN,23.789,   NaN,16.92,1018.24,89.09,17.13,26.2,28.1,10.7,11.2,20.9,22.6,6.7,7.3,NaN, NaN,11.0,336.0,334.0,1132359945,1132359945,1,9.3,001545,001545,336.4,33.375223,-124.316130,9.91,NaN,NaN,18.044, NaN,NaN,NaN, NaN, NaN,NaN
20051119,002615,1383969,33.376587,-124.316838,6.9,17.737,33.096,43.681,292.29,0.0,0.236,17.657,17.619, NaN,23.791,   NaN,16.93,1018.34,89.25,17.14,24.8,27.3,10.7,11.7,19.0,20.3,6.6,7.7,NaN, NaN,10.0,335.8,335.4,1132359975,1132359975,1,9.9,001576,001575,335.8,33.376423,-124.316823,10.09,NaN,NaN,18.045, NaN,NaN,NaN, NaN, NaN,NaN
20051119,002645,1384000,33.377777,-124.317522,7.0,17.741,33.095,43.683,285.58,0.0,0.230,17.660,17.623, NaN,23.789,   NaN,16.88,1018.18,89.35,17.09,25.2,27.2,11.0,12.0,18.7,19.3,6.9,8.0,NaN, NaN,10.0,336.3,336.5,1132360005,1132360005,1,9.4,001606,001605,336.0,33.377612,-124.317517,9.89,NaN,NaN,18.049, NaN,NaN,NaN, NaN, NaN,NaN
20051119,002715,1384030,33.378965,-124.318212,6.8,17.744,33.094,43.685,278.85,0.0,0.234,17.661,17.624, NaN,23.788,   NaN,16.88,1018.39,89.54,17.11,26.3,28.3,10.8,11.4,20.4,22.4,6.8,7.5,NaN, NaN,11.0,335.8,335.1,1132360035,1132360035,1,9.6,001636,001635,335.6,33.378807,-124.318203,10.08,NaN,NaN,18.052, NaN,NaN,NaN, NaN, NaN,NaN
20051119,002746,1384060,33.380140,-124.318907,7.0,17.743,33.102,43.693,273.18,0.0,0.234,17.663,17.627, NaN,23.794,   NaN,16.85,1018.35,89.62,17.07,25.9,27.8,10.9,11.6,19.5,21.1,6.9,7.6,NaN, NaN,12.0,335.7,332.1,1132360066,1132360065,1,9.6,001666,001665,335.7,33.379978,-124.318893,9.82,NaN,NaN,18.051, NaN,NaN,NaN, NaN, NaN,NaN
20051119,002815,1384089,33.381332,-124.319608,6.9,17.745,33.102,43.695,269.30,0.0,0.229,17.669,17.629, NaN,23.794,   NaN,16.82,1018.29,89.68,17.05,26.5,27.8,11.0,11.8,20.1,20.5,7.1,7.9,NaN, NaN,11.0,336.2,334.2,1132360095,1132360095,1,9.6,001696,001695,336.2,33.381170,-124.319600,9.99,NaN,NaN,18.053, NaN,NaN,NaN, NaN, NaN,NaN
20051119,002845,1384119,33.382538,-124.320300,6.9,17.749,33.100,43.697,265.29,0.0,0.228,17.672,17.632, NaN,23.792,   NaN,16.88,1018.27,89.96,17.06,26.6,27.7,10.9,11.6,20.8,21.0,6.9,7.6,NaN, NaN,11.0,335.7,335.5,1132360125,1132360125,1,9.6,001726,001725,335.5,33.382367,-124.320292,10.07,NaN,NaN,18.057, NaN,NaN,NaN, NaN, NaN,NaN
20051119,002915,1384149,33.383653,-124.320957,6.7,17.751,33.102,43.701,262.08,0.0,0.228,17.676,17.636, NaN,23.793,   NaN,16.77,1018.27,89.67,16.97,24.8,26.8,11.1,12.1,17.5,18.5,7.0,8.1,NaN, NaN,11.0,336.8,334.1,1132360155,1132360155,1,7.6,001756,001755,337.0,33.383483,-124.320957,9.09,NaN,NaN,18.059, NaN,NaN,NaN, NaN, NaN,NaN
20051119,002945,1384180,33.384333,-124.321342,6.7,17.758,33.101,43.705,258.93,0.0,0.228,17.678,17.640, NaN,23.790,   NaN,16.76,1018.37,89.51,16.97,25.2,27.4,10.4,11.1,16.6,18.3,6.9,7.7,NaN, NaN,12.0,340.5,332.0,1132360185,1132360185,1,4.1,001786,001785,340.5,33.384167,-124.321352,5.31,NaN,NaN,18.065, NaN,NaN,NaN, NaN, NaN,NaN
20051119,003016,1384210,33.384753,-124.321560,6.6,17.762,33.101,43.710,274.97,0.0,0.225,17.680,17.644, NaN,23.790,   NaN,16.80,1018.46,89.54,16.99,27.0,29.0,8.8,8.9,17.4,19.8,6.6,6.7,NaN, NaN,12.0,344.9,321.8,1132360215,1132360215,1,2.7,001816,001815,344.9,33.384587,-124.321580,3.46,NaN,NaN,18.069, NaN,NaN,NaN, NaN, NaN,NaN
20051119,003045,1384239,33.385018,-124.321682,6.6,17.766,33.100,43.712,427.17,0.0,0.239,17.682,17.644, NaN,23.788,   NaN,16.79,1018.43,89.37,16.97,27.9,28.9,8.0,7.9,18.7,20.2,6.7,6.6,NaN, NaN,12.0,349.0,322.8,1132360245,1132360245,1,2.0,001846,001845,349.0,33.384865,-124.321712,2.38,NaN,NaN,18.073, NaN,NaN,0.8, NaN, NaN,NaN
20051119,003115,1384269,33.385212,-124.321745,6.6,17.775,33.097,43.717,454.16,0.0,0.241,17.685,17.649, NaN,23.783,   NaN,16.79,1018.39,89.34,16.97,26.1,27.5,7.6,8.0,18.6,20.1,6.7,7.1,NaN, NaN,11.0,351.2,8.5,1132360275,1132360275,1,1.2,001876,001875,351.2,33.385053,-124.321778,1.87,NaN,NaN,18.082, NaN,NaN,0.8, NaN, NaN,780.000000
20051119,003146,1384300,33.385350,-124.321810,6.7,17.777,33.099,43.722,530.57,0.0,0.249,17.689,17.650, NaN,23.784,   NaN,16.77,1018.48,89.30,16.99,22.4,25.7,7.3,8.0,15.9,19.3,6.6,7.4,NaN, NaN,11.0,352.0,332.5,1132360306,1132360305,1,1.1,001906,001905,352.0,33.385185,-124.321847,1.39,NaN,NaN,18.084, NaN,NaN,0.8, NaN, NaN,NaN
20051119,003216,1384330,33.385435,-124.321842,6.5,17.783,33.101,43.729,504.22,0.0,0.241,17.688,17.649, NaN,23.784,   NaN,16.78,1018.44,89.29,16.98,22.2,25.6,7.1,7.8,15.5,18.9,6.5,7.2,NaN, NaN,12.0,348.5,308.9,1132360335,1132360335,1,1.0,001936,001935,348.5,33.385268,-124.321860,1.15,NaN,NaN,18.090, NaN,NaN,0.7, NaN, NaN,NaN
20051119,003245,1384360,33.385480,-124.321882,6.7,17.785,33.105,43.735,451.04,0.0,0.236,17.688,17.650, NaN,23.786,   NaN,16.83,1018.45,89.51,17.00,25.5,29.0,6.8,7.0,16.1,19.8,6.4,6.6,NaN, NaN,12.0,344.8,265.1,1132360365,1132360365,1,0.0,001966,001965,344.8,33.385318,-124.321892,0.97,NaN,NaN,18.092, NaN,NaN,0.7, NaN, NaN,781.000000
20051119,003315,1384389,33.385523,-124.321945,6.8,17.783,33.112,43.743,434.24,0.0,0.235,17.687,17.649, NaN,23.793,   NaN,16.83,1018.44,89.59,17.03,30.5,34.2,6.6,6.0,17.7,22.0,6.2,5.6,NaN, NaN,12.0,344.2,276.4,1132360395,1132360395,1,0.7,001996,001995,344.5,33.385358,-124.321957,0.96,NaN,NaN,18.090, NaN,NaN,2.1, NaN, NaN,NaN
20051119,003345,1384419,33.385572,-124.322005,6.7,17.782,33.115,43.745,441.28,0.0,0.240,17.686,17.649, NaN,23.795,   NaN,16.78,1018.38,89.61,16.99,31.7,35.6,6.6,5.9,19.2,23.8,6.2,5.5,NaN, NaN,13.0,349.8,2.8,1132360425,1132360425,1,0.5,002026,002025,349.8,33.385410,-124.322037,0.94,NaN,NaN,18.089, NaN,NaN,13.5, NaN, NaN,NaN
20051119,003415,1384449,33.385588,-124.322077,6.7,17.778,33.121,43.748,426.54,0.0,0.234,17.686,17.649, NaN,23.800,   NaN,16.76,1018.44,89.66,16.99,29.2,32.5,6.6,6.4,20.2,23.8,6.3,6.1,NaN, NaN,12.0,353.3,292.4,1132360455,1132360455,1,0.7,002056,002055,353.7,33.385430,-124.322105,0.71,NaN,NaN,18.085, NaN,NaN,13.0, NaN, NaN,NaN
20051119,003446,1384480,33.385588,-124.322115,6.7,17.779,33.124,43.752,359.71,0.0,0.232,17.686,17.649, NaN,23.802,   NaN,16.78,1018.44,89.78,16.99,28.3,29.3,6.5,6.9,23.1,24.0,6.2,6.6,307.4, NaN,11.0,355.4,261.6,1132360486,1132360486,1,0.4,002087,002086,355.5,33.385433,-124.322148,0.54,NaN,NaN,18.086, NaN,NaN,13.4, NaN, NaN,NaN
20051119,003516,1384510,33.385580,-124.322138,6.6,17.780,33.123,43.753,277.05,0.0,0.229,17.687,17.649, NaN,23.802,   NaN,16.84,1018.42,90.03,17.05,25.5,26.6,6.2,6.8,22.0,23.1,6.0,6.6,307.5, NaN,11.0,355.8,251.8,1132360516,1132360515,1,0.4,002116,002115,355.8,33.385422,-124.322168,0.42,NaN,NaN,18.087, NaN,NaN,13.3, NaN, NaN,NaN
20051119,003546,1384540,33.385573,-124.322157,6.6,17.780,33.122,43.752,235.13,0.0,0.226,17.692,17.652, NaN,23.801,   NaN,16.82,1018.40,90.06,17.03,22.4,24.5,6.0,6.9,19.1,21.1,5.7,6.6,300.1, NaN,11.0,353.3,68.5,1132360546,1132360546,1,0.2,002147,002146,353.3,33.385415,-124.322177,0.47,NaN,NaN,18.087, NaN,NaN,13.4, NaN, NaN,NaN